Location: Rometta
(44.2000°N, 10.0500°E)
Time: 10:59:58
(UTC+00:00)

Cosmos 1818 - Pass Details

Date: 14 May 2021
Orbit: 771 x 802 km, 65.0° (Epoch: 15 June)

Event Time Altitude Azimuth Distance (km) Brightness Sun altitude
Rises 19:06:33 0° 330° (NNW) 3,318 8.1 -5.1°
Reaches altitude 10° 19:10:28 10° 358° (N) 2,387 6.6 -5.7°
Maximum altitude 19:13:00 13° 25° (NNE) 2,170 6.0 -6.1°
Drops below altitude 10° 19:15:32 10° 53° (NE) 2,384 5.9 -6.5°
Sets 19:19:25 0° 80° (E) 3,309 6.4 -7.0°
